Location: Limoges
(45.8354°N, 1.2645°E)
Time: 23:01:19
(UTC+02:00)

ISS - Visible Passes

Search period start: 15 July 2024 00:00
Search period end: 25 July 2024 00:00
Orbit: 410 x 424 km, 51.6° (Epoch: 15 July)

Date Brightness Start Highest point End Pass type
(mag) Time Alt. Az. Time Alt. Az. Time Alt. Az.
15 Jul -1.8 00:38:29 10° WNW 00:41:28 30° N 00:44:27 10° ENE visible
15 Jul -2.5 02:15:16 10° WNW 02:17:22 35° NW 02:17:22 35° NW visible
15 Jul -2.6 22:12:35 10° W 22:15:48 47° NNW 22:19:02 10° ENE visible
15 Jul -1.7 23:50:06 10° WNW 23:53:02 28° N 23:55:59 10° ENE visible
16 Jul -2.9 01:27:01 10° WNW 01:30:09 50° NNE 01:30:09 50° NNE visible
16 Jul -1.8 23:01:35 10° WNW 23:04:33 29° N 23:07:31 10° ENE visible
17 Jul -2.5 00:38:41 10° NW 00:41:50 38° NNE 00:43:02 27° ENE visible
17 Jul -1.1 02:15:25 10° WNW 02:15:53 13° WNW 02:15:53 13° WNW visible
17 Jul -1.9 22:12:58 10° WNW 22:15:59 32° N 22:19:02 10° NE visible
17 Jul -2.1 23:50:15 10° NW 23:53:17 32° N 23:55:56 13° ENE visible
18 Jul -2.2 01:26:57 10° WNW 01:28:48 30° WNW 01:28:48 30° WNW visible
18 Jul -1.9 23:01:42 10° WNW 23:04:40 29° N 23:07:38 10° ENE visible
19 Jul -3.5 00:38:28 10° WNW 00:41:43 67° NNE 00:41:43 67° NNE visible
19 Jul -1.8 22:13:01 10° WNW 22:15:57 28° N 22:18:54 10° ENE visible
19 Jul -3.0 23:49:56 10° WNW 23:53:11 48° NNE 23:54:36 27° E visible
20 Jul -1.2 01:26:47 10° WNW 01:27:29 15° W 01:27:29 15° W visible
20 Jul -2.5 23:01:20 10° NW 23:04:27 37° NNE 23:07:29 11° E visible
21 Jul -2.7 00:38:02 10° WNW 00:40:21 38° W 00:40:21 38° W visible
21 Jul -2.2 22:12:36 10° NW 22:15:38 32° N 22:18:39 10° ENE visible
21 Jul -3.9 23:49:18 10° WNW 23:52:38 88° SSW 23:53:12 58° ESE visible
22 Jul -3.5 23:00:32 10° WNW 23:03:51 63° NNE 23:06:01 19° ESE visible
23 Jul -1.5 00:37:38 10° W 00:38:53 17° W 00:38:53 17° W visible
23 Jul -2.9 22:11:44 10° NW 22:14:56 45° NNE 22:18:09 10° E visible
23 Jul -3.0 23:48:31 10° WNW 23:51:38 37° SW 23:51:41 37° SW visible
24 Jul -3.6 22:59:31 10° WNW 23:02:47 61° SSW 23:04:28 26° SE visible
